#timestamp,LO_Frequency,Hit,StdDev 
1514948415.6,286046997.4,N
1514948435.4,286046996.7,N
1514948455.2,286046999.5,N
1514948475.1,286046997.0,N
1514948476.0,286046997.0,N
1514948495.8,286046998.2,N
1514948515.7,286046997.4,N
1514948535.5,286046997.5,N
1514948555.3,286046997.1,N
1514948575.2,286046997.0,N
1514948595.0,286046994.9,Y
1514948595.9,286046994.9,P
1514948615.7,286046999.5,N
1514948635.6,286046998.9,N
1514948655.4,286046999.1,N
1514948675.3,286047002.7,N
1514948695.1,286047002.6,N
1514948696.0,286047002.6,N
1514948715.8,286046998.4,N
1514948735.7,286047001.2,N
1514948755.5,286047001.0,N
1514948775.3,286046998.6,N
1514948795.2,286047000.1,N
1514948815.0,286047000.1,N
1514948815.9,286047000.1,N
1514948835.8,286046999.9,N
1514948855.6,286047000.0,N
1514948875.4,286046998.6,N
1514948895.3,286046998.5,N
1514948915.1,286046998.9,N
1514948935.9,286046998.4,N
1514948955.7,286046999.4,N
1514948975.6,286046999.2,N
1514948995.4,286046999.0,N
1514949015.2,286046998.6,N
1514949035.1,286046998.6,N
1514949036.0,286046998.6,N
1514949055.8,286047000.3,N
1514949075.6,286047000.7,N
1514949095.5,286047001.7,N
1514949115.3,286047001.6,N
1514949135.2,286047000.0,N
1514949155.0,286047000.8,N
1514949155.9,286047000.8,N
1514949175.7,286047001.2,N
1514949195.6,286046998.9,N
1514949215.4,286046999.6,N
1514949235.3,286046998.2,N
1514949255.1,286046999.3,N
1514949256.0,286046999.3,N
1514949275.8,286046998.9,N
1514949295.8,286046995.4,Y
1514949315.6,286046997.8,P
1514949335.4,286046999.0,N
1514949355.3,286047001.1,N
1514949375.1,286047002.3,N
1514949395.8,286046998.1,N
1514949415.7,286046996.9,N
1514949435.5,286046997.2,N
1514949455.4,286046994.9,N
1514949475.2,286046995.4,N
1514949495.0,286046997.5,N
1514949495.9,286046997.5,N
1514949515.8,286046998.2,N
1514949535.6,286046996.5,N
1514949555.4,286046997.3,N
1514949575.3,286046998.1,N
1514949595.1,286047001.1,N
1514949615.9,286047000.3,N
1514949635.7,286046998.9,N
1514949655.5,286046999.2,N
1514949675.4,286046999.0,N
1514949695.2,286047002.2,N
1514949715.4,286047000.8,N
1514949735.2,286046998.7,N
1514949755.1,286046999.5,N
1514949756.0,286046999.5,N
1514949775.8,286047000.0,N
1514949795.7,286047000.9,N
1514949815.5,286047001.1,N
1514949835.3,286046999.2,N
1514949855.2,286046999.4,N
1514949875.0,286046998.7,N
1514949875.9,286046998.7,N
1514949895.0,286046998.1,N
1514949895.9,286046998.1,N
1514949915.8,286046998.7,N
1514949935.6,286046999.3,N
1514949955.4,286046999.5,N
1514949975.3,286046997.3,N
1514949995.1,286046999.4,N
1514950015.9,286046998.4,N
1514950035.7,286047000.9,N
1514950055.5,286046998.9,N
1514950075.4,286046998.5,N
1514950095.2,286046998.8,N
1514950115.0,286047000.5,N
1514950115.9,286047000.5,N
1514950135.8,286047001.2,N
1514950155.6,286046996.8,N
1514950175.5,286047000.6,N
1514950195.3,286046999.9,N
1514950215.1,286046999.9,N
1514950235.9,286047002.0,N
1514950255.7,286047001.9,N
1514950275.5,286047000.1,N
1514950295.4,286047001.9,N
1514950315.2,286047000.4,N
1514950335.1,286047002.2,N
1514950336.0,286047002.2,N
1514950355.8,286047000.3,N
1514950375.6,286047000.4,N
1514950395.5,286047001.2,N
1514950415.3,286047000.5,N
1514950435.2,286047000.8,N
1514950455.9,286047002.1,N
1514950475.7,286047002.1,N
1514950495.8,286046999.7,N
1514950515.6,286046999.7,N
1514950535.5,286047004.4,Y
1514950555.3,286047001.7,P
1514950575.2,286047002.6,P
1514950595.9,286047002.3,N
1514950615.7,286047002.0,N
1514950635.6,286047002.3,N
1514950655.4,286047002.3,Y
1514950675.3,286046998.1,P
1514950695.1,286046999.9,N
1514950696.0,286046999.9,N
1514950715.8,286047000.4,N
1514950735.7,286047000.0,N
1514950755.5,286047001.5,N
1514950775.8,286047001.1,N
1514950795.7,286046998.8,N
1514950815.5,286046996.8,N
1514950835.3,286046996.7,N
1514950855.2,286046997.3,N
1514950875.0,286046997.1,N
1514950875.9,286046997.1,N
1514950895.7,286046997.3,N
1514950915.6,286046997.1,N
1514950935.4,286046997.4,N
1514950955.3,286046995.1,N
1514950975.1,286046997.6,N
1514950976.0,286046997.6,N
1514950995.8,286046996.7,N
1514951015.7,286046996.9,N
1514951035.5,286046997.3,N
1514951055.4,286046998.9,N
1514951075.2,286046998.3,N
1514951095.0,286046998.1,N
1514951095.9,286046998.1,N
1514951115.8,286046999.5,N
1514951135.4,286046995.6,N
1514951155.3,286046995.3,N
1514951175.1,286046997.9,N
1514951195.8,286046995.4,N
1514951215.7,286046997.7,N
1514951235.5,286046995.0,Y
1514951255.4,286046998.8,P
1514951275.2,286046999.0,N
1514951295.0,286047001.2,N
1514951295.9,286047001.2,N
1514951315.8,286047000.6,N
1514951335.6,286047002.7,N
1514951355.5,286046999.7,N
1514951375.3,286047000.6,N
1514951395.1,286047002.3,N
1514951415.9,286047001.8,N
1514951435.7,286047000.0,N
1514951455.5,286047000.8,N
1514951475.4,286047000.2,N
1514951495.2,286047001.1,N
1514951515.1,286047000.5,N
1514951516.0,286047000.5,N
1514951535.8,286047000.7,N
1514951555.6,286047000.3,N
1514951575.5,286047000.7,N
1514951595.3,286046999.8,N
1514951615.1,286046999.9,N
1514951635.9,286047002.6,N
1514951655.7,286046998.7,N
1514951675.6,286046998.9,N
1514951695.4,286046996.8,N
1514951715.2,286046997.2,N
1514951735.3,286046999.2,N
1514951755.1,286047000.8,N
1514951775.9,286046998.9,N
1514951795.7,286046999.9,N
1514951815.5,286046998.7,N
1514951835.4,286047001.1,N
1514951855.2,286047001.2,N
1514951875.1,286047002.5,N
1514951876.0,286047002.5,N
1514951895.8,286047001.1,N
1514951915.6,286047000.6,N
1514951935.5,286047000.6,N
1514951955.3,286046999.7,N
1514951975.1,286046998.5,N
1514951995.9,286047000.8,N
